• In Belarus
  • List of Countries
  • For 7 days
  • Water Temperature
  • Satellite Maps
  • Weather Map
  • Weather Widgets
  • user-avatar
    Login

    Hourly Weather Hrazdan

    Today, 20 April, Friday

    Time Temperature Precipitation Wind Pressure Humidity
    00:00 +6°C° 0.1 mm 1 mps 608 mmHg 80%
    01:00 +6°C° 0 mm 1 mps 608 mmHg 81%
    02:00 +6°C° 0 mm 1 mps 607 mmHg 81%
    03:00 +5°C° 0 mm 1 mps 607 mmHg 81%
    04:00 +5°C° 0 mm 1 mps 607 mmHg 81%
    05:00 +5°C° 0 mm 1 mps 606 mmHg 81%
    06:00 +5°C° 0 mm 1 mps 606 mmHg 80%
    07:00 +6°C° 0 mm 2 mps 606 mmHg 74%
    08:00 +8°C° 0 mm 3 mps 607 mmHg 67%
    09:00 +8°C° 0 mm 4 mps 607 mmHg 59%
    10:00 +10°C° 0.3 mm 4 mps 607 mmHg 57%
    11:00 +11°C° 0.3 mm 4 mps 607 mmHg 54%
    12:00 +12°C° 0.3 mm 4 mps 607 mmHg 51%
    13:00 +11°C° 0.8 mm 4 mps 606 mmHg 54%
    14:00 +10°C° 0.8 mm 4 mps 606 mmHg 57%
    15:00 +10°C° 0.8 mm 4 mps 606 mmHg 60%
    16:00 +9°C° 1.2 mm 3 mps 605 mmHg 65%
    17:00 +8°C° 1.2 mm 3 mps 605 mmHg 71%
    18:00 +7°C° 1.2 mm 2 mps 605 mmHg 76%
    19:00 +6°C° 1 mm 2 mps 605 mmHg 79%
    20:00 +6°C° 1 mm 2 mps 605 mmHg 82%
    21:00 +5°C° 1 mm 2 mps 605 mmHg 85%
    22:00 +5°C° 0.5 mm 2 mps 605 mmHg 85%
    23:00 +5°C° 0.5 mm 1 mps 605 mmHg 86%

    Tomorrow, 21 April, Saturday

    Time Temperature Precipitation Wind Pressure Humidity
    00:00 +5°C° 0.5 mm 1 mps 604 mmHg 87%
    01:00 +5°C° 0.7 mm 1 mps 604 mmHg 87%
    02:00 +5°C° 0.7 mm 1 mps 604 mmHg 87%
    03:00 +3°C° 0.7 mm 2 mps 604 mmHg 87%
    04:00 +3°C° 0.7 mm 2 mps 605 mmHg 87%
    05:00 +4°C° 0.7 mm 1 mps 605 mmHg 86%
    06:00 +4°C° 0.7 mm 1 mps 605 mmHg 86%
    07:00 +3°C° 0.4 mm 2 mps 605 mmHg 83%
    08:00 +4°C° 0.4 mm 2 mps 606 mmHg 79%
    09:00 +4°C° 0.4 mm 2 mps 606 mmHg 76%
    10:00 +5°C° 0.3 mm 2 mps 606 mmHg 75%
    11:00 +5°C° 0.3 mm 2 mps 607 mmHg 74%
    12:00 +6°C° 0.3 mm 2 mps 607 mmHg 73%
    13:00 +6°C° 0.2 mm 2 mps 607 mmHg 73%
    14:00 +6°C° 0.2 mm 2 mps 607 mmHg 73%
    15:00 +6°C° 0.2 mm 2 mps 607 mmHg 73%
    16:00 +6°C° 0.1 mm 2 mps 607 mmHg 74%
    17:00 +5°C° 0.1 mm 2 mps 607 mmHg 75%
    18:00 +5°C° 0.1 mm 2 mps 607 mmHg 76%
    19:00 +4°C° 0.1 mm 2 mps 607 mmHg 77%
    20:00 +4°C° 0.1 mm 2 mps 607 mmHg 79%
    21:00 +3°C° 0.1 mm 2 mps 608 mmHg 80%
    22:00 +3°C° 0.1 mm 2 mps 608 mmHg 82%
    23:00 +2°C° 0.1 mm 2 mps 608 mmHg 83%

    Day after tomorrow, 22 April, Sunday

    Time Temperature Precipitation Wind Pressure Humidity
    00:00 +2°C° 0.1 mm 2 mps 608 mmHg 84%
    01:00 +2°C° 0.2 mm 2 mps 608 mmHg 85%
    02:00 +2°C° 0.2 mm 2 mps 608 mmHg 86%
    03:00 +1°C° 0.2 mm 2 mps 608 mmHg 88%
    04:00 +2°C° 0.3 mm 1 mps 608 mmHg 88%
    05:00 +2°C° 0.3 mm 1 mps 608 mmHg 87%
    06:00 +2°C° 0.3 mm 1 mps 609 mmHg 87%
    07:00 +3°C° 0.3 mm 1 mps 609 mmHg 85%
    08:00 +4°C° 0.3 mm 1 mps 609 mmHg 83%
    09:00 +4°C° 0.3 mm 1 mps 609 mmHg 81%
    10:00 +5°C° 0.1 mm 1 mps 609 mmHg 79%
    11:00 +6°C° 0.1 mm 1 mps 609 mmHg 77%
    12:00 +6°C° 0.1 mm 2 mps 609 mmHg 75%
    13:00 +6°C° 0.1 mm 2 mps 609 mmHg 74%
    14:00 +7°C° 0.1 mm 2 mps 609 mmHg 72%
    15:00 +8°C° 0.1 mm 1 mps 609 mmHg 71%
    16:00 +8°C° 0.1 mm 1 mps 608 mmHg 73%
    17:00 +8°C° 0.1 mm 1 mps 608 mmHg 74%
    18:00 +7°C° 0.1 mm 1 mps 608 mmHg 76%
    19:00 +6°C° 0.1 mm 1 mps 608 mmHg 79%
    20:00 +6°C° 0.1 mm 1 mps 608 mmHg 82%
    21:00 +5°C° 0.1 mm 1 mps 608 mmHg 85%
    22:00 +4°C° 0 mm 2 mps 608 mmHg 86%
    23:00 +3°C° 0 mm 2 mps 608 mmHg 86%

    23 April, Monday

    Time Temperature Precipitation Wind Pressure Humidity
    00:00 +3°C° 0 mm 2 mps 608 mmHg 86%
    01:00 +4°C° 0 mm 1 mps 608 mmHg 87%
    02:00 +4°C° 0 mm 1 mps 607 mmHg 88%
    03:00 +3°C° 0 mm 1 mps 607 mmHg 88%
    04:00 +3°C° 0 mm 1 mps 607 mmHg 88%
    05:00 +3°C° 0 mm 1 mps 608 mmHg 87%
    06:00 +3°C° 0 mm 1 mps 608 mmHg 87%
    07:00 +5°C° 0 mm 1 mps 608 mmHg 81%
    08:00 +6°C° 0 mm 1 mps 608 mmHg 76%
    09:00 +7°C° 0 mm 2 mps 609 mmHg 70%
    10:00 +8°C° 0 mm 2 mps 609 mmHg 65%
    11:00 +9°C° 0 mm 2 mps 609 mmHg 60%
    12:00 +10°C° 0 mm 2 mps 609 mmHg 54%
    13:00 +10°C° 0 mm 2 mps 609 mmHg 53%
    14:00 +10°C° 0 mm 2 mps 609 mmHg 52%
    15:00 +10°C° 0 mm 2 mps 609 mmHg 51%
    16:00 +10°C° 0 mm 2 mps 609 mmHg 55%
    17:00 +9°C° 0 mm 2 mps 609 mmHg 59%
    18:00 +8°C° 0 mm 2 mps 609 mmHg 62%
    19:00 +7°C° 0 mm 2 mps 609 mmHg 67%
    20:00 +5°C° 0 mm 2 mps 609 mmHg 73%
    21:00 +5°C° 0 mm 1 mps 609 mmHg 78%
    22:00 +5°C° 0 mm 1 mps 609 mmHg 79%
    23:00 +4°C° 0 mm 1 mps 609 mmHg 80%

    24 April, Tuesday

    Time Temperature Precipitation Wind Pressure Humidity
    00:00 +4°C° 0 mm 1 mps 610 mmHg 81%
    01:00 +3°C° 0 mm 1 mps 609 mmHg 81%
    02:00 +3°C° 0 mm 1 mps 609 mmHg 82%
    03:00 +3°C° 0 mm 1 mps 609 mmHg 82%
    04:00 +3°C° 0 mm 1 mps 610 mmHg 79%
    05:00 +3°C° 0 mm 1 mps 610 mmHg 76%
    06:00 +3°C° 0 mm 1 mps 611 mmHg 73%
    07:00 +5°C° 0 mm 1 mps 611 mmHg 65%
    08:00 +6°C° 0 mm 2 mps 612 mmHg 56%
    09:00 +8°C° 0 mm 2 mps 613 mmHg 48%
    10:00 +9°C° 0 mm 2 mps 613 mmHg 45%
    11:00 +10°C° 0 mm 3 mps 613 mmHg 42%
    12:00 +11°C° 0 mm 3 mps 614 mmHg 39%
    13:00 +12°C° 0 mm 3 mps 614 mmHg 39%
    14:00 +12°C° 0 mm 3 mps 614 mmHg 39%
    15:00 +13°C° 0 mm 3 mps 614 mmHg 38%
    16:00 +12°C° 0 mm 3 mps 613 mmHg 43%
    17:00 +12°C° 0 mm 2 mps 613 mmHg 49%
    18:00 +10°C° 0 mm 2 mps 613 mmHg 54%
    19:00 +9°C° 0 mm 1 mps 613 mmHg 58%
    20:00 +8°C° 0 mm 1 mps 613 mmHg 62%
    21:00 +7°C° 0 mm 1 mps 613 mmHg 66%
    22:00 +6°C° 0 mm 1 mps 613 mmHg 65%
    23:00 +6°C° 0 mm 1 mps 613 mmHg 65%

    25 April, Wednesday

    Time Temperature Precipitation Wind Pressure Humidity
    00:00 +6°C° 0 mm 1 mps 613 mmHg 64%
    01:00 +5°C° 0 mm 1 mps 613 mmHg 63%
    02:00 +5°C° 0 mm 1 mps 613 mmHg 61%
    03:00 +5°C° 0 mm 1 mps 613 mmHg 60%
    04:00 +5°C° 0 mm 1 mps 613 mmHg 60%
    05:00 +5°C° 0 mm 1 mps 613 mmHg 60%
    06:00 +5°C° 0 mm 1 mps 614 mmHg 59%
    07:00 +7°C° 0 mm 2 mps 614 mmHg 55%
    08:00 +9°C° 0 mm 2 mps 615 mmHg 51%
    09:00 +12°C° 0 mm 2 mps 615 mmHg 47%
    10:00 +13°C° 0 mm 2 mps 615 mmHg 44%
    11:00 +14°C° 0 mm 2 mps 615 mmHg 42%
    12:00 +16°C° 0 mm 3 mps 615 mmHg 39%
    13:00 +16°C° 0 mm 3 mps 615 mmHg 38%
    14:00 +16°C° 0 mm 3 mps 615 mmHg 37%
    15:00 +16°C° 0 mm 3 mps 614 mmHg 36%
    16:00 +15°C° 0.1 mm 2 mps 614 mmHg 42%
    17:00 +14°C° 0.1 mm 2 mps 614 mmHg 48%
    18:00 +13°C° 0.1 mm 1 mps 613 mmHg 53%
    19:00 +12°C° 0.1 mm 1 mps 613 mmHg 58%
    20:00 +11°C° 0.1 mm 1 mps 613 mmHg 62%
    21:00 +9°C° 0.1 mm 1 mps 613 mmHg 67%
    22:00 +9°C° 0 mm 1 mps 613 mmHg 69%
    23:00 +9°C° 0 mm 1 mps 613 mmHg 71%
    Show more